Location: Hains Lake
(37.8540°N, 99.8578°W)
Time: 14:29:02
(UTC+00:00)

Transit 2A - Pass Details

Date: 28 April 2021
Orbit: 602 x 957 km, 66.7° (Epoch: 13 May)

Event Time Altitude Azimuth Distance (km) Brightness Sun altitude
Rises 09:56:32 0° 155° (SSE) 3,107 9.0 -20.0°
Reaches altitude 10° 10:01:13 10° 115° (ESE) 2,096 8.6 -19.2°
Maximum altitude 10:01:56 10° 106° (ESE) 2,061 8.7 -19.1°
Drops below altitude 10° 10:02:40 10° 97° (E) 2,070 8.9 -19.0°
Sets 10:07:05 0° 56° (NE) 2,915 10.7 -18.3°
